{"data":{"norad_id":43152,"epoch":"2026-05-25T04:21:16.912800Z","epoch_age_seconds":55288,"freshness":"FRESH","line1":"1 43152U 18007A   26145.18144575  .00009043  00000+0  39404-3 0  9992","line2":"2 43152  97.3983 152.4673 0001723  92.2812 267.8622 15.22418781463916","mean_motion":15.22418781,"eccentricity":0.0001723,"inclination_deg":97.3983,"raan_deg":152.4673,"arg_perigee_deg":92.2812,"mean_anomaly_deg":267.8622,"bstar":0.00039404,"rev_number":46391,"period_min":94.586326572649,"perigee_km":497.36243428312,"apogee_km":499.73213968842,"semimajor_km":6876.6842869858,"source":"CELESTRAK","updated_at":"2026-05-25T13:37:55.784499Z"}}